Weather History for Savannah Hunter, GA

Change the Weather History Date:

Thursday, October 4, 2012

  Actual Average Record
Temperature  
Mean Temperature 74 °F -  
Max Temperature 79 °F 79 °F 87 °F (2002)
Min Temperature 68 °F 62 °F 49 °F (2011)
Cooling Degree Days 8    
Growing Degree Days 24 (Base 50)    
Moisture  
Dew Point 70 °F    
Average Humidity 90    
Maximum Humidity 100    
Minimum Humidity 78    
Precipitation  
Precipitation 0.00 in - - ()
Sea Level Pressure  
Sea Level Pressure 30.19 in    
Wind  
Wind Speed 2 mph (NNW)    
Max Wind Speed 8 mph    
Max Gust Speed -    
Visibility 8 miles    
Events      
Averages and records for this station are not official NWS values.
T = Trace of Precipitation, MM = Missing Value Source: NWS Daily Summary

Daily Weather History Graph

Daily Weather History Graph

Search for Another Location

Airport:

Trip Planner

Search our weather history database for the weather conditions in past years. The results will help you decide how hot, cold, wet, or windy it might be!

Date:

Astronomy

Oct. 04, 2012 Rise Set
Actual Time 7:20 AM EDT 7:04 PM EDT
Civil Twilight 6:56 AM EDT 7:29 PM EDT
Nautical Twilight 6:28 AM EDT 7:57 PM EDT
Astronomical Twilight 5:59 AM EDT 8:26 PM EDT
Moon 9:55 PM EDT (10/4) 11:20 AM EDT (10/4)
Length of Visible Light 12h 33m
Length of Day
11h 44m
Waning Gibbous, 82% of the Moon is Illuminated
Oct 4
Waning Gibbous
Oct 8
Last Quarter
Oct 15
New
Oct 21
First Quarter
Oct 29
Full

Hourly Weather History & Observations

Time (EDT) Temp. Dew Point Humidity Pressure Visibility Wind Dir Wind Speed Gust Speed Precip Events Conditions
12:09 AM 69.8 °F 68.0 °F 94% 30.18 in 10.0 mi Calm Calm - N/A   Mostly Cloudy
12:20 AM 69.8 °F 68.0 °F 94% 30.18 in 10.0 mi Calm Calm - N/A   Mostly Cloudy
12:30 AM 69.8 °F 68.0 °F 94% 30.18 in 10.0 mi Calm Calm - N/A   Mostly Cloudy
12:41 AM 69.8 °F 68.0 °F 94% 30.18 in 10.0 mi Calm Calm - N/A   Overcast
12:50 AM 69.8 °F 68.0 °F 94% 30.19 in 8.0 mi Calm Calm - N/A   Overcast
12:55 AM 69.3 °F 68.2 °F 96% 30.19 in 8.0 mi Calm Calm - N/A   Overcast
12:57 AM 69.8 °F 68.0 °F 94% 30.19 in 8.0 mi Calm Calm - N/A   Overcast
1:07 AM 69.8 °F 68.0 °F 94% 30.18 in 8.0 mi Calm Calm - N/A   Overcast
1:24 AM 69.8 °F 68.0 °F 94% 30.19 in 6.0 mi Calm Calm - N/A   Overcast
1:50 AM 69.8 °F 68.0 °F 94% 30.19 in 5.0 mi Calm Calm - N/A   Overcast
1:55 AM 69.4 °F 68.5 °F 97% 30.19 in 4.0 mi West 3.5 mph - N/A   Overcast
2:03 AM 69.8 °F 68.0 °F 94% 30.18 in 2.5 mi Calm Calm - N/A   Overcast
2:29 AM 69.8 °F 68.0 °F 94% 30.18 in 3.0 mi Calm Calm - N/A   Overcast
2:30 AM 69.8 °F 68.0 °F 94% 30.18 in 3.0 mi Calm Calm - N/A   Overcast
2:55 AM 68.9 °F 68.4 °F 98% 30.18 in 7.0 mi Calm Calm - N/A   Overcast
3:08 AM 69.8 °F 68.0 °F 94% 30.18 in 9.0 mi Calm Calm - N/A   Overcast
3:24 AM 69.8 °F 68.0 °F 94% 30.17 in 10.0 mi Calm Calm - N/A   Overcast
3:55 AM 69.4 °F 68.5 °F 97% 30.17 in 10.0 mi Calm Calm - N/A   Mostly Cloudy
4:18 AM 69.8 °F 68.0 °F 94% 30.17 in 10.0 mi Calm Calm - N/A   Mostly Cloudy
4:29 AM 69.8 °F 68.0 °F 94% 30.17 in 9.0 mi Calm Calm - N/A   Mostly Cloudy
4:30 AM 69.8 °F 68.0 °F 94% 30.17 in 9.0 mi Calm Calm - N/A   Mostly Cloudy
4:55 AM 69.4 °F 68.9 °F 98% 30.18 in 7.0 mi Calm Calm - N/A   Overcast
5:16 AM 69.8 °F 69.8 °F 100% 30.17 in 7.0 mi Calm Calm - N/A   Overcast
5:36 AM 69.8 °F 69.8 °F 100% 30.19 in 6.0 mi Calm Calm - N/A   Overcast
5:47 AM 69.8 °F 69.8 °F 100% 30.19 in 8.0 mi Calm Calm - N/A   Overcast
5:49 AM 69.8 °F 69.8 °F 100% 30.19 in 8.0 mi Calm Calm - N/A   Overcast
5:55 AM 70.2 °F 69.6 °F 98% 30.19 in 10.0 mi Calm Calm - N/A   Overcast
6:21 AM 69.8 °F 69.8 °F 100% 30.19 in 10.0 mi Calm Calm - N/A   Scattered Clouds
6:55 AM 70.0 °F 69.3 °F 98% 30.19 in 10.0 mi Calm Calm - N/A   Clear
7:55 AM 71.1 °F 70.5 °F 98% 30.20 in 9.0 mi Calm Calm - N/A   Clear
8:00 AM 71.6 °F 69.8 °F 94% 30.20 in 9.0 mi Calm Calm - N/A   Partly Cloudy
8:16 AM 71.6 °F 71.6 °F 100% 30.21 in 10.0 mi Calm Calm - N/A   Mostly Cloudy
8:47 AM 73.4 °F 71.6 °F 94% 30.21 in 10.0 mi NNW 4.6 mph - N/A   Overcast
8:52 AM 73.4 °F 71.6 °F 94% 30.20 in 3.0 mi North 4.6 mph - N/A   Overcast
8:55 AM 73.6 °F 71.8 °F 94% 30.22 in 10.0 mi NNW 4.6 mph - N/A   Overcast
8:56 AM 73.4 °F 71.6 °F 94% 30.22 in 10.0 mi NNW 3.5 mph - N/A   Overcast
8:59 AM 73.4 °F 71.6 °F 94% 30.22 in 4.0 mi North 4.6 mph - N/A   Overcast
9:42 AM 73.4 °F 71.6 °F 94% 30.23 in 9.0 mi North 3.5 mph - N/A   Overcast
9:43 AM 73.4 °F 71.6 °F 94% 30.22 in 3.0 mi North 3.5 mph - N/A   Overcast
9:44 AM 73.4 °F 71.6 °F 94% 30.22 in 3.0 mi North 4.6 mph - N/A   Overcast
9:49 AM 73.4 °F 71.6 °F 94% 30.23 in 9.0 mi NNW 3.5 mph - N/A   Overcast
9:55 AM 73.4 °F 71.6 °F 94% 30.23 in 3.0 mi NNW 4.6 mph - N/A   Overcast
9:59 AM 73.4 °F 71.6 °F 94% 30.24 in 3.0 mi NW 5.8 mph - N/A   Overcast
10:00 AM 73.4 °F 71.6 °F 94% 30.23 in 7.0 mi NNW 4.6 mph - N/A   Overcast
10:15 AM 73.4 °F 71.6 °F 94% 30.23 in 2.5 mi NNW 5.8 mph - N/A   Overcast
10:44 AM 73.4 °F 71.6 °F 94% 30.22 in 3.0 mi NNW 4.6 mph - N/A   Overcast
10:56 AM 73.4 °F 71.6 °F 94% 30.23 in 4.0 mi North 4.6 mph - N/A   Light Drizzle
11:06 AM 73.4 °F 71.6 °F 94% 30.23 in 10.0 mi NNW 3.5 mph - N/A   Light Drizzle
11:15 AM 75.2 °F 71.6 °F 89% 30.23 in 10.0 mi North 3.5 mph - N/A   Light Drizzle
11:17 AM 75.2 °F 71.6 °F 89% 30.23 in 10.0 mi North 4.6 mph - N/A   Mostly Cloudy
11:23 AM 75.2 °F 71.6 °F 89% 30.23 in 10.0 mi North 4.6 mph - N/A   Mostly Cloudy
11:55 AM 76.1 °F 72.3 °F 88% 30.23 in 10.0 mi NNW 4.6 mph - 0.00 in   Scattered Clouds
12:35 PM 78.8 °F 73.4 °F 83% 30.22 in 10.0 mi NNW 4.6 mph - N/A   Mostly Cloudy
12:55 PM 78.8 °F 72.9 °F 82% 30.22 in 10.0 mi NW 5.8 mph - N/A   Mostly Cloudy
1:55 PM 78.6 °F 72.3 °F 81% 30.19 in 10.0 mi NNW 6.9 mph - N/A   Overcast
2:36 PM 78.8 °F 71.6 °F 78% 30.18 in 10.0 mi NW 8.1 mph - N/A   Overcast
2:47 PM 78.8 °F 71.6 °F 78% 30.18 in 10.0 mi NNW 4.6 mph - N/A   Mostly Cloudy
2:48 PM 78.8 °F 71.6 °F 78% 30.18 in 10.0 mi NNW 4.6 mph - N/A   Mostly Cloudy
2:50 PM 78.8 °F 71.6 °F 78% 30.17 in 10.0 mi North 5.8 mph - N/A   Mostly Cloudy
2:52 PM 78.8 °F 71.6 °F 78% 30.17 in 10.0 mi North 5.8 mph - N/A   Mostly Cloudy
2:55 PM 78.1 °F 71.8 °F 81% 30.17 in 10.0 mi NW 4.6 mph - N/A   Mostly Cloudy
3:22 PM 78.8 °F 71.6 °F 78% 30.17 in 10.0 mi North 6.9 mph - N/A   Mostly Cloudy
3:24 PM 78.8 °F 71.6 °F 78% 30.17 in 10.0 mi Variable 5.8 mph - N/A   Mostly Cloudy
3:55 PM 79.0 °F 71.4 °F 78% 30.17 in 10.0 mi North 4.6 mph - N/A   Overcast
4:07 PM 78.8 °F 71.6 °F 78% 30.17 in 10.0 mi North 5.8 mph - N/A   Scattered Clouds
4:20 PM 78.8 °F 71.6 °F 78% 30.16 in 10.0 mi NNW 4.6 mph - N/A   Mostly Cloudy
4:26 PM 78.8 °F 71.6 °F 78% 30.17 in 10.0 mi North 5.8 mph - N/A   Mostly Cloudy
4:29 PM 78.8 °F 71.6 °F 78% 30.17 in 10.0 mi NW 4.6 mph - N/A   Scattered Clouds
4:36 PM 78.8 °F 71.6 °F 78% 30.15 in 10.0 mi NNW 5.8 mph - N/A   Mostly Cloudy
4:46 PM 78.8 °F 71.6 °F 78% 30.17 in 10.0 mi NNW 5.8 mph - N/A   Mostly Cloudy
4:55 PM 79.3 °F 71.8 °F 78% 30.17 in 10.0 mi Variable 3.5 mph - N/A   Mostly Cloudy
5:29 PM 78.8 °F 71.6 °F 78% 30.16 in 10.0 mi NNW 4.6 mph - N/A   Scattered Clouds
5:55 PM 78.3 °F 70.9 °F 78% 30.16 in 10.0 mi NNW 5.8 mph - N/A   Clear
6:55 PM 76.8 °F 70.7 °F 81% 30.16 in 10.0 mi North 4.6 mph - N/A   Clear
7:55 PM 75.7 °F 70.9 °F 85% 30.16 in 10.0 mi NNE 3.5 mph - N/A   Mostly Cloudy
8:55 PM 74.7 °F 70.7 °F 87% 30.18 in 10.0 mi Calm Calm - N/A   Partly Cloudy
9:55 PM 73.0 °F 70.9 °F 93% 30.19 in 10.0 mi Calm Calm - N/A   Partly Cloudy
10:55 PM 72.9 °F 71.2 °F 95% 30.20 in 10.0 mi Calm Calm - N/A   Mostly Cloudy
11:55 PM 73.4 °F 71.4 °F 93% 30.17 in 10.0 mi North 3.5 mph - N/A   Scattered Clouds